SAS68L ESNQ-ESSA

Flight info

Callsign SAS68L
Flight time 1h 15m
Altitude 39000
Route VAGAS DCT OSK DCT SIPRI T31 VACRA
Aircraft A20N/M-SDE3FGIJ1RWXY/ALB1

Departure

Time 2026-05-07 13:44
Airport Kiruna Airport (ESNQ)

Arrival

Time 2026-05-07 14:59
Airport Stockholm-Arlanda Airport (ESSA)
Time Latitude Longitude Altitude Speed Heading
2026-05-07 13:05 67.82507 20.33499 1467 ft 0 kts 26°
2026-05-07 13:38 67.82510 20.33507 1467 ft 2 kts 41°
2026-05-07 13:38 67.82513 20.33571 1463 ft 5 kts 107°
2026-05-07 13:39 67.82471 20.33646 1463 ft 9 kts 150°
2026-05-07 13:39 67.82423 20.33789 1462 ft 12 kts 119°
2026-05-07 13:39 67.82393 20.33966 1460 ft 11 kts 87°
2026-05-07 13:39 67.82453 20.34130 1463 ft 15 kts 34°
2026-05-07 13:40 67.82556 20.34313 1457 ft 20 kts 34°
2026-05-07 13:40 67.82683 20.34534 1453 ft 23 kts 32°
2026-05-07 13:40 67.82817 20.34768 1451 ft 23 kts 32°
2026-05-07 13:40 67.82945 20.34994 1444 ft 23 kts 32°
2026-05-07 13:41 67.83048 20.35151 1442 ft 15 kts 18°
2026-05-07 13:41 67.83117 20.35203 1438 ft 0 kts 20°
2026-05-07 13:41 67.83126 20.35212 1438 ft 0 kts 21°
2026-05-07 13:41 67.83127 20.35219 1438 ft 0 kts 47°
2026-05-07 13:42 67.83122 20.35248 1439 ft 4 kts 114°
2026-05-07 13:42 67.83094 20.35255 1440 ft 5 kts 207°
2026-05-07 13:42 67.83069 20.35216 1441 ft 0 kts 211°
2026-05-07 13:43 67.83058 20.35198 1442 ft 18 kts 211°
2026-05-07 13:43 67.82699 20.34547 1455 ft 104 kts 213°
2026-05-07 13:43 67.81913 20.33200 1680 ft 147 kts 214°
2026-05-07 13:44 67.81048 20.31676 2454 ft 158 kts 217°
2026-05-07 13:44 67.80136 20.29961 3324 ft 165 kts 218°
2026-05-07 13:44 67.79167 20.28037 3968 ft 182 kts 220°
2026-05-07 13:44 67.78113 20.25941 4499 ft 204 kts 217°
2026-05-07 13:45 67.76792 20.24058 4974 ft 230 kts 199°
2026-05-07 13:45 67.75100 20.23827 5408 ft 262 kts 171°
2026-05-07 13:45 67.73276 20.24997 6197 ft 274 kts 164°
2026-05-07 13:45 67.71444 20.26489 7246 ft 277 kts 163°
2026-05-07 13:46 67.69600 20.28058 8271 ft 280 kts 163°
2026-05-07 13:46 67.67723 20.29536 9284 ft 283 kts 168°
2026-05-07 13:46 67.65767 20.30162 10265 ft 285 kts 183°
2026-05-07 13:46 67.63729 20.29670 10768 ft 305 kts 189°
2026-05-07 13:47 67.61557 20.28743 11165 ft 327 kts 192°
2026-05-07 13:47 67.59294 20.27607 11905 ft 334 kts 193°
2026-05-07 13:47 67.57003 20.26420 12809 ft 338 kts 192°
2026-05-07 13:47 67.54686 20.25216 13731 ft 341 kts 192°
2026-05-07 13:48 67.52346 20.24017 14555 ft 344 kts 192°
2026-05-07 13:48 67.49985 20.22821 15387 ft 347 kts 192°
2026-05-07 13:48 67.47601 20.21618 16188 ft 350 kts 193°
2026-05-07 13:48 67.45200 20.20408 16985 ft 353 kts 193°
2026-05-07 13:49 67.42781 20.19187 17787 ft 356 kts 193°
2026-05-07 13:49 67.40328 20.17945 18474 ft 361 kts 193°
2026-05-07 13:49 67.37860 20.16702 19185 ft 363 kts 192°
2026-05-07 13:49 67.35368 20.15442 19812 ft 367 kts 192°
2026-05-07 13:50 67.32834 20.14486 20548 ft 368 kts 189°
2026-05-07 13:50 67.30284 20.13634 21227 ft 372 kts 189°
2026-05-07 13:50 67.27708 20.12770 21903 ft 373 kts 189°
2026-05-07 13:50 67.25127 20.11895 22590 ft 376 kts 188°
2026-05-07 13:51 67.22520 20.11006 23203 ft 380 kts 188°
2026-05-07 13:51 67.19888 20.10114 23790 ft 383 kts 188°
2026-05-07 13:51 67.17235 20.09217 24263 ft 387 kts 188°
2026-05-07 13:51 67.14568 20.08318 24717 ft 391 kts 188°
2026-05-07 13:52 67.11837 20.07400 25191 ft 395 kts 188°
2026-05-07 13:52 67.09098 20.06482 25631 ft 399 kts 188°
2026-05-07 13:52 67.06331 20.05562 26084 ft 403 kts 188°
2026-05-07 13:52 67.03534 20.04627 26508 ft 407 kts 189°
2026-05-07 13:53 67.00710 20.03682 26933 ft 411 kts 189°
2026-05-07 13:53 66.97859 20.02732 27352 ft 415 kts 189°
2026-05-07 13:53 66.94985 20.01778 27750 ft 419 kts 189°
2026-05-07 13:53 66.92082 20.00818 28113 ft 423 kts 189°
2026-05-07 13:54 66.89148 19.99850 28450 ft 427 kts 189°
2026-05-07 13:54 66.86188 19.98876 28841 ft 430 kts 189°
2026-05-07 13:54 66.83207 19.97899 29209 ft 434 kts 189°
2026-05-07 13:54 66.80206 19.96916 29556 ft 437 kts 189°
2026-05-07 13:55 66.77181 19.95928 29907 ft 440 kts 189°
2026-05-07 13:55 66.74132 19.94935 30224 ft 443 kts 189°
2026-05-07 13:55 66.71104 19.93953 30531 ft 446 kts 189°
2026-05-07 13:55 66.68020 19.92955 30828 ft 448 kts 189°
2026-05-07 13:56 66.64919 19.91953 31134 ft 451 kts 189°
2026-05-07 13:56 66.61809 19.90949 31503 ft 451 kts 189°
2026-05-07 13:56 66.58691 19.89947 31896 ft 451 kts 189°
2026-05-07 13:56 66.55577 19.88949 32281 ft 451 kts 189°
2026-05-07 13:57 66.53475 19.88276 32541 ft 451 kts 189°
2026-05-07 13:57 66.50357 19.87280 32908 ft 451 kts 189°
2026-05-07 13:57 66.47241 19.86287 33278 ft 452 kts 189°
2026-05-07 13:57 66.44123 19.85295 33644 ft 452 kts 189°
2026-05-07 13:58 66.41046 19.84319 33990 ft 452 kts 189°
2026-05-07 13:58 66.37930 19.83334 34296 ft 451 kts 189°
2026-05-07 13:58 66.34816 19.82351 34586 ft 451 kts 189°
2026-05-07 13:58 66.31705 19.81372 34864 ft 451 kts 189°
2026-05-07 13:59 66.28594 19.80396 35137 ft 451 kts 189°
2026-05-07 13:59 66.25486 19.79424 35406 ft 450 kts 189°
2026-05-07 13:59 66.22379 19.78455 35674 ft 450 kts 189°
2026-05-07 13:59 66.19279 19.77489 35923 ft 450 kts 189°
2026-05-07 14:00 66.16172 19.76523 36167 ft 450 kts 189°
2026-05-07 14:00 66.13071 19.75561 36416 ft 449 kts 190°
2026-05-07 14:00 66.09971 19.74602 36652 ft 449 kts 190°
2026-05-07 14:00 66.06871 19.73646 36875 ft 449 kts 190°
2026-05-07 14:01 66.03770 19.72691 37097 ft 449 kts 190°
2026-05-07 14:01 66.00670 19.71739 37299 ft 449 kts 190°
2026-05-07 14:01 65.97570 19.70789 37506 ft 449 kts 190°
2026-05-07 14:01 65.94471 19.69842 37696 ft 449 kts 190°
2026-05-07 14:02 65.91373 19.68899 37918 ft 448 kts 190°
2026-05-07 14:02 65.88279 19.67959 38109 ft 448 kts 190°
2026-05-07 14:02 65.85183 19.67020 38298 ft 448 kts 190°
2026-05-07 14:02 65.82091 19.66084 38478 ft 448 kts 190°
2026-05-07 14:03 65.78999 19.65150 38656 ft 448 kts 190°
2026-05-07 14:03 65.75907 19.64219 38797 ft 448 kts 190°
2026-05-07 14:03 65.72813 19.63289 38925 ft 448 kts 190°
2026-05-07 14:04 65.66628 19.61437 39018 ft 448 kts 190°
2026-05-07 14:04 65.60454 19.59599 39017 ft 447 kts 190°
2026-05-07 14:05 65.54273 19.57766 39020 ft 447 kts 190°
2026-05-07 14:05 65.48092 19.55941 39019 ft 447 kts 190°
2026-05-07 14:06 65.41914 19.54127 39018 ft 447 kts 190°
2026-05-07 14:06 65.35732 19.52320 39018 ft 448 kts 190°
2026-05-07 14:07 65.29594 19.50536 39023 ft 447 kts 190°
2026-05-07 14:07 65.23423 19.48750 39023 ft 447 kts 190°
2026-05-07 14:08 65.17252 19.46970 39025 ft 447 kts 190°
2026-05-07 14:08 65.11082 19.45199 39020 ft 447 kts 190°
2026-05-07 14:09 65.04910 19.43438 39026 ft 447 kts 190°
2026-05-07 14:09 64.98739 19.41684 39002 ft 447 kts 190°
2026-05-07 14:10 64.92575 19.39942 39022 ft 446 kts 190°
2026-05-07 14:10 64.86415 19.38207 39023 ft 446 kts 190°
2026-05-07 14:11 64.80256 19.36480 39028 ft 446 kts 190°
2026-05-07 14:11 64.74096 19.34762 39025 ft 446 kts 190°
2026-05-07 14:12 64.67932 19.33050 39032 ft 446 kts 190°
2026-05-07 14:12 64.61774 19.31349 39028 ft 445 kts 190°
2026-05-07 14:13 64.55615 19.29654 39032 ft 446 kts 190°
2026-05-07 14:13 64.49457 19.27967 39033 ft 446 kts 190°
2026-05-07 14:14 64.43295 19.26287 39041 ft 446 kts 190°
2026-05-07 14:14 64.37131 19.24613 39040 ft 446 kts 190°
2026-05-07 14:15 64.31013 19.22961 39036 ft 446 kts 191°
2026-05-07 14:15 64.24811 19.21292 39040 ft 446 kts 191°
2026-05-07 14:16 64.18688 19.19651 39044 ft 446 kts 191°
2026-05-07 14:16 64.12525 19.18008 39043 ft 446 kts 191°
2026-05-07 14:17 64.06363 19.16373 39053 ft 446 kts 191°
2026-05-07 14:17 64.00199 19.14746 39050 ft 445 kts 191°
2026-05-07 14:18 63.94054 19.13131 39054 ft 443 kts 191°
2026-05-07 14:18 63.87937 19.11527 39056 ft 443 kts 191°
2026-05-07 14:19 63.81815 19.09929 39060 ft 443 kts 191°
2026-05-07 14:19 63.75692 19.08340 39063 ft 443 kts 191°
2026-05-07 14:20 63.69567 19.06757 39052 ft 442 kts 191°
2026-05-07 14:20 63.63454 19.05184 39064 ft 442 kts 191°
2026-05-07 14:21 63.57344 19.03617 39065 ft 442 kts 191°
2026-05-07 14:21 63.51235 19.02056 39069 ft 442 kts 191°
2026-05-07 14:22 63.45130 19.00502 39065 ft 442 kts 191°
2026-05-07 14:22 63.39005 18.99140 39065 ft 444 kts 187°
2026-05-07 14:23 63.32828 18.98532 39065 ft 445 kts 187°
2026-05-07 14:23 63.26642 18.97927 39073 ft 445 kts 187°
2026-05-07 14:24 63.20456 18.97302 39080 ft 445 kts 187°
2026-05-07 14:24 63.14265 18.96675 39082 ft 445 kts 187°
2026-05-07 14:25 63.08071 18.96051 39070 ft 445 kts 187°
2026-05-07 14:25 63.01923 18.95435 39090 ft 445 kts 187°
2026-05-07 14:26 62.95731 18.94815 39095 ft 446 kts 187°
2026-05-07 14:26 62.89536 18.94199 39096 ft 446 kts 187°
2026-05-07 14:27 62.83338 18.93585 39100 ft 446 kts 187°
2026-05-07 14:27 62.77139 18.92975 39078 ft 445 kts 187°
2026-05-07 14:28 62.70957 18.92368 39106 ft 445 kts 188°
2026-05-07 14:28 62.64775 18.91762 39106 ft 445 kts 188°
2026-05-07 14:29 62.58593 18.91159 39108 ft 444 kts 188°
2026-05-07 14:29 62.52417 18.90559 39109 ft 444 kts 188°
2026-05-07 14:30 62.46242 18.89963 39109 ft 444 kts 188°
2026-05-07 14:30 62.40095 18.89374 39103 ft 441 kts 188°
2026-05-07 14:31 62.33967 18.88785 39102 ft 441 kts 188°
2026-05-07 14:31 62.27831 18.88198 39109 ft 441 kts 188°
2026-05-07 14:32 62.21699 18.87615 39105 ft 441 kts 188°
2026-05-07 14:32 62.15567 18.87035 39117 ft 441 kts 188°
2026-05-07 14:33 62.09436 18.86458 39112 ft 441 kts 188°
2026-05-07 14:33 62.03310 18.85882 39116 ft 441 kts 188°
2026-05-07 14:34 61.97185 18.85309 39116 ft 441 kts 188°
2026-05-07 14:34 61.91056 18.84738 39119 ft 441 kts 188°
2026-05-07 14:35 61.84930 18.84170 39117 ft 441 kts 188°
2026-05-07 14:35 61.78813 18.83606 39120 ft 440 kts 188°
2026-05-07 14:36 61.72698 18.83045 39112 ft 440 kts 188°
2026-05-07 14:36 61.66588 18.82483 39117 ft 440 kts 188°
2026-05-07 14:37 61.60474 18.81923 39117 ft 440 kts 188°
2026-05-07 14:37 61.54350 18.81365 38774 ft 441 kts 188°
2026-05-07 14:37 61.51277 18.81086 38018 ft 444 kts 188°
2026-05-07 14:38 61.48172 18.80802 37045 ft 450 kts 188°
2026-05-07 14:38 61.45017 18.80512 36067 ft 456 kts 188°
2026-05-07 14:38 61.41864 18.79982 35310 ft 451 kts 196°
2026-05-07 14:38 61.38846 18.78354 34411 ft 448 kts 203°
2026-05-07 14:39 61.35867 18.76412 33459 ft 450 kts 204°
2026-05-07 14:39 61.32879 18.74455 32556 ft 450 kts 204°
2026-05-07 14:39 61.29895 18.72510 31657 ft 450 kts 204°
2026-05-07 14:39 61.26906 18.70576 30787 ft 449 kts 205°
2026-05-07 14:40 61.23927 18.68660 30087 ft 445 kts 205°
2026-05-07 14:40 61.20995 18.66793 29497 ft 435 kts 206°
2026-05-07 14:40 61.18131 18.64972 28947 ft 426 kts 206°
2026-05-07 14:40 61.15322 18.63181 28395 ft 419 kts 206°
2026-05-07 14:41 61.12561 18.61419 27850 ft 412 kts 206°
2026-05-07 14:41 61.09846 18.59688 27314 ft 405 kts 206°
2026-05-07 14:41 61.07172 18.57986 26768 ft 399 kts 206°
2026-05-07 14:41 61.04533 18.56307 26216 ft 394 kts 206°
2026-05-07 14:42 61.01928 18.54654 25670 ft 390 kts 206°
2026-05-07 14:42 61.00217 18.53570 25308 ft 387 kts 206°
2026-05-07 14:42 60.97655 18.51949 24762 ft 383 kts 206°
2026-05-07 14:42 60.95119 18.50348 24175 ft 379 kts 206°
2026-05-07 14:43 60.92611 18.48764 23684 ft 375 kts 206°
2026-05-07 14:43 60.90131 18.47201 23118 ft 370 kts 206°
2026-05-07 14:43 60.86901 18.45171 22421 ft 363 kts 206°
2026-05-07 14:43 60.84498 18.43664 21907 ft 359 kts 206°
2026-05-07 14:44 60.82893 18.42658 21565 ft 356 kts 206°
2026-05-07 14:44 60.80542 18.41185 21059 ft 351 kts 206°
2026-05-07 14:44 60.78215 18.39730 20558 ft 348 kts 206°
2026-05-07 14:44 60.75912 18.38292 20066 ft 345 kts 205°
2026-05-07 14:45 60.73629 18.36866 19566 ft 342 kts 205°
2026-05-07 14:45 60.71393 18.35474 19085 ft 339 kts 205°
2026-05-07 14:45 60.69143 18.34076 18603 ft 337 kts 205°
2026-05-07 14:45 60.66906 18.32689 18062 ft 335 kts 205°
2026-05-07 14:46 60.64693 18.31318 17589 ft 330 kts 204°
2026-05-07 14:46 60.62492 18.29955 17117 ft 338 kts 204°
2026-05-07 14:46 60.60152 18.28483 16595 ft 363 kts 203°
2026-05-07 14:46 60.57718 18.26974 16317 ft 364 kts 203°
2026-05-07 14:47 60.55322 18.25520 16192 ft 354 kts 203°
2026-05-07 14:47 60.52979 18.24100 15733 ft 349 kts 203°
2026-05-07 14:47 60.50657 18.22683 15143 ft 348 kts 203°
2026-05-07 14:47 60.48342 18.21266 14578 ft 347 kts 202°
2026-05-07 14:48 60.46040 18.19858 14021 ft 345 kts 202°
2026-05-07 14:48 60.43750 18.18461 13435 ft 342 kts 202°
2026-05-07 14:48 60.41481 18.17077 12902 ft 339 kts 202°
2026-05-07 14:48 60.39238 18.15712 12378 ft 335 kts 201°
2026-05-07 14:49 60.37021 18.14364 11841 ft 331 kts 201°
2026-05-07 14:49 60.34821 18.13028 11324 ft 328 kts 201°
2026-05-07 14:49 60.32646 18.11707 10820 ft 325 kts 200°
2026-05-07 14:49 60.30520 18.10423 10611 ft 312 kts 200°
2026-05-07 14:50 60.28486 18.09201 10482 ft 298 kts 200°
2026-05-07 14:50 60.26545 18.08036 10360 ft 285 kts 200°
2026-05-07 14:50 60.24680 18.06915 10120 ft 277 kts 200°
2026-05-07 14:50 60.22847 18.05808 9701 ft 273 kts 200°
2026-05-07 14:51 60.21030 18.04714 9289 ft 271 kts 200°
2026-05-07 14:51 60.19204 18.03614 9151 ft 276 kts 200°
2026-05-07 14:51 60.17367 18.02511 9016 ft 275 kts 200°
2026-05-07 14:51 60.15539 18.01418 8869 ft 274 kts 200°
2026-05-07 14:52 60.13707 18.00321 8554 ft 274 kts 200°
2026-05-07 14:52 60.11886 17.99234 8198 ft 272 kts 199°
2026-05-07 14:52 60.10073 17.98151 7797 ft 271 kts 199°
2026-05-07 14:52 60.08277 17.97078 7464 ft 270 kts 199°
2026-05-07 14:53 60.06471 17.96003 7128 ft 270 kts 198°
2026-05-07 14:53 60.04684 17.94943 6801 ft 267 kts 198°
2026-05-07 14:53 60.02895 17.93881 6468 ft 269 kts 198°
2026-05-07 14:53 60.01109 17.92821 6136 ft 266 kts 198°
2026-05-07 14:54 59.99343 17.91776 5810 ft 264 kts 198°
2026-05-07 14:54 59.97574 17.90729 5479 ft 265 kts 198°
2026-05-07 14:54 59.95815 17.89692 5158 ft 262 kts 198°
2026-05-07 14:54 59.94055 17.88825 5030 ft 264 kts 192°
2026-05-07 14:55 59.92248 17.88129 5005 ft 263 kts 193°
2026-05-07 14:55 59.90456 17.87419 4975 ft 263 kts 193°
2026-05-07 14:55 59.88650 17.86789 4820 ft 264 kts 186°
2026-05-07 14:55 59.86846 17.87066 4652 ft 258 kts 167°
2026-05-07 14:56 59.85167 17.88101 4532 ft 248 kts 163°
2026-05-07 14:56 59.83541 17.89122 4286 ft 243 kts 164°
2026-05-07 14:56 59.81952 17.90103 3951 ft 242 kts 164°
2026-05-07 14:56 59.80337 17.91093 3589 ft 243 kts 165°
2026-05-07 14:57 59.78731 17.92079 3378 ft 236 kts 165°
2026-05-07 14:57 59.77180 17.93015 2940 ft 235 kts 166°
2026-05-07 14:57 59.75628 17.93878 2369 ft 227 kts 168°
2026-05-07 14:57 59.74116 17.94432 1777 ft 212 kts 176°
2026-05-07 14:58 59.72696 17.94539 1502 ft 207 kts 184°
2026-05-07 14:58 59.71297 17.94245 1122 ft 193 kts 195°
2026-05-07 14:58 59.70048 17.93634 883 ft 178 kts 195°
2026-05-07 14:58 59.68869 17.93174 619 ft 164 kts 191°
2026-05-07 14:59 59.67819 17.92826 383 ft 144 kts 193°
2026-05-07 14:59 59.66892 17.92479 200 ft 129 kts 195°
2026-05-07 14:59 59.66073 17.92166 117 ft 103 kts 190°
2026-05-07 14:59 59.65639 17.92037 108 ft 30 kts 175°
2026-05-07 15:00 59.65468 17.92169 102 ft 20 kts 156°
2026-05-07 15:00 59.65413 17.92220 102 ft 4 kts 153°
2026-05-07 15:00 59.65397 17.92270 104 ft 5 kts 90°
2026-05-07 15:00 59.65427 17.92342 104 ft 12 kts 43°
2026-05-07 15:01 59.65501 17.92485 105 ft 17 kts 50°
2026-05-07 15:01 59.65544 17.92722 107 ft 17 kts 76°
2026-05-07 15:01 59.65573 17.92958 109 ft 19 kts 76°
2026-05-07 15:01 59.65600 17.93167 109 ft 12 kts 76°
2026-05-07 15:02 59.65581 17.93306 110 ft 12 kts 149°
2026-05-07 15:02 59.65514 17.93343 110 ft 9 kts 172°
2026-05-07 15:02 59.65452 17.93349 111 ft 8 kts 172°
2026-05-07 15:02 59.65385 17.93380 111 ft 11 kts 165°
2026-05-07 15:03 59.65325 17.93415 111 ft 7 kts 148°
2026-05-07 15:03 59.65300 17.93507 109 ft 8 kts 110°
2026-05-07 15:03 59.65290 17.93561 111 ft 1 kts 108°
2026-05-07 15:03 59.65289 17.93565 111 ft 0 kts 108°